STARLINK-5644 (55369 NORAD) Tracking and Keplerian Element Data

This shows tracking and keplerian element data for the satellite.

Feedback or suggestion? Click here.




ElementValue
Catalog55369
NameSTARLINK-5644
Epoch Orbit1592
Epoch Day127.19245122
Epoch Year2023
RAAN190.7242
Inclination43.0002
Eccentricity0.000143
Argument of Perigee271.1292
Mean Anonmoly88.9386
Mean Motion15.02541475
Decay Rate2.372E-05
L11 55369U 23013AQ 23127.19245122 .00002372 00000+0 19054-3 0 9993
L22 55369 43.0002 190.7242 0001430 271.1292 88.9386 15.02541475 15929



Live tracking and technical data element details for STARLINK-5644 (NORAD 55369). STARLINK-5644 can be tracked NOW for your location showing map with azimuth and elevation plus other details from your city location.







IsCatalogInMostPopularTable: catalog: 55369, numindb: 1
Update: records affected: 1



GetName: 55369 STARLINK-5644

Hit Count: updated at: Mon, 05 Jun 2023 20:44:07 GMT